QPF
0.33 0.41 0.47 0.51 0.71 0.60 0.44 0.44 0.39 0.29 0.22 0.17 0.17 0.18 0.20 0.23 0.27 0.27 0.23 0.21 0.18 0.14 0.10 0.09 0.08 0.07 0.06 0.05 0.04 0.04 0.03 0.03 0.03 0.02 0.03 0.02 0.02 0.02 0.03 0.04 0.06 0.07 0.07
0.33 0.40 0.54 0.58 0.67 0.64 0.55 0.53 0.46 0.32 0.26 0.24 0.21 0.20 0.20 0.22 0.26 0.28 0.27 0.25 0.22 0.18 0.15 0.12 0.09 0.07 0.05 0.04 0.03 0.03 0.03 0.03 0.02 0.02 0.02 0.02 0.02 0.01 0.02 0.03 0.05 0.06 0.07
0.42 0.43 0.62 0.65 0.61 0.60 0.56 0.54 0.52 0.38 0.31 0.28 0.28 0.29 0.27 0.24 0.23 0.24 0.24 0.23 0.23 0.21 0.18 0.14 0.10 0.07 0.05 0.03 0.02 0.02 0.02 0.02 0.02 0.02 0.02 0.02 0.02 0.02 0.01 0.01 0.01 0.02 0.02
0.26 0.33 0.52 0.65 0.53 0.50 0.45 0.39 0.38 0.36 0.36 0.29 0.29 0.35 0.37 0.35 0.34 0.30 0.28 0.24 0.22 0.20 0.15 0.12 0.09 0.05 0.04 0.03 0.02 0.01 0.01 0.02 0.02 0.02 0.02 0.03 0.02 0.02 0.01 0.01 0.01 0.01 0.01
0.14 0.22 0.27 0.34 0.41 0.42 0.38 0.30 0.22 0.24 0.31 0.32 0.32 0.39 0.46 0.43 0.42 0.38 0.30 0.23 0.17 0.12 0.10 0.09 0.07 0.05 0.05 0.03 0.02 0.01 0.01 0.01 0.01 0.01 0.01 0.01 0.01 0.01 0.01 0.01 0.01 0.02 0.02
0.09 0.10 0.13 0.17 0.25 0.31 0.28 0.28 0.23 0.20 0.22 0.23 0.24 0.33 0.41 0.40 0.37 0.29 0.20 0.17 0.14 0.13 0.11 0.10 0.09 0.07 0.06 0.04 0.03 0.03 0.03 0.03 0.02 0.02 0.02 0.01 0.01 0.01 0.01 0.01 0.01 0.01 0.02
0.09 0.08 0.08 0.08 0.10 0.13 0.15 0.18 0.21 0.20 0.18 0.20 0.22 0.23 0.25 0.25 0.22 0.19 0.16 0.13 0.10 0.11 0.13 0.11 0.08 0.05 0.03 0.04 0.04 0.04 0.04 0.02 0.02 0.01 0.01 0.01 0.01 0.01 0.01 0.01 0.01 0.01 0.01
0.06 0.07 0.08 0.09 0.09 0.09 0.08 0.09 0.13 0.15 0.14 0.13 0.13 0.14 0.12 0.12 0.10 0.09 0.09 0.07 0.06 0.07 0.07 0.05 0.04 0.04 0.04 0.03 0.02 0.02 0.01 0.01 0.01 0.00 0.00 0.00 0.00 0.01 0.01 0.01 0.01 0.01 0.01
0.05 0.05 0.06 0.06 0.08 0.08 0.07 0.06 0.06 0.07 0.08 0.08 0.08 0.08 0.07 0.06 0.06 0.06 0.05 0.05 0.05 0.04 0.02 0.02 0.01 0.02 0.02 0.01 0.01 0.01 0.01 0.00 0.00 0.00 0.00 0.00 0.00 0.00 0.00 0.00 0.00 0.01 0.01
0.05 0.04 0.04 0.04 0.05 0.05 0.05 0.05 0.04 0.04 0.05 0.06 0.06 0.06 0.07 0.07 0.06 0.05 0.04 0.03 0.02 0.01 0.01 0.01 0.01 0.01 0.01 0.01 0.01 0.01 0.00 0.00 0.00 0.00 0.00 0.00 0.00 0.00 0.00 0.00 0.00 0.00 0.00
0.05 0.04 0.04 0.04 0.03 0.04 0.04 0.04 0.04 0.03 0.04 0.05 0.04 0.04 0.04 0.04 0.03 0.02 0.02 0.01 0.01 0.01 0.01 0.00 0.00 0.00 0.00 0.01 0.00 0.00 0.00 0.00 0.00 0.00 0.00 0.00 0.00 0.00 0.00 0.00 0.00 0.00 0.00
0.04 0.03 0.03 0.03 0.03 0.03 0.03 0.03 0.04 0.03 0.03 0.03 0.02 0.02 0.02 0.02 0.01 0.01 0.01 0.01 0.01 0.01 0.01 0.00 0.00 0.00 0.00 0.00 0.00 0.00 0.00 0.00 0.00 0.00 0.00 0.00 0.00 0.00 0.00 0.00 0.00 0.00 0.00
0.04 0.03 0.02 0.02 0.02 0.02 0.02 0.02 0.03 0.03 0.02 0.02 0.01 0.01 0.01 0.01 0.01 0.01 0.01 0.01 0.01 0.00 0.00 0.00 0.00 0.00 0.00 0.00 0.00 0.00 0.00 0.00 0.00 0.00 0.00 0.00 0.00 0.00 0.00 0.00 0.00 0.00 0.00
0.03 0.02 0.02 0.01 0.02 0.02 0.02 0.02 0.02 0.02 0.02 0.02 0.01 0.01 0.01 0.01 0.01 0.01 0.01 0.00 0.00 0.00 0.00 0.00 0.00 0.00 0.00 0.00 0.00 0.00 0.00 0.00 0.00 0.00 0.00 0.00 0.00 0.00 0.00 0.00 0.00 0.00 0.00
0.04 0.03 0.02 0.02 0.02 0.02 0.02 0.02 0.01 0.02 0.02 0.01 0.00 0.00 0.00 0.01 0.00 0.00 0.00 0.00 0.00 0.00 0.00 0.00 0.00 0.00 0.00 0.00 0.00 0.00 0.00 0.00 0.00 0.00 0.00 0.00 0.00 0.00 0.00 0.00 0.00 0.00 0.00
0.07 0.06 0.06 0.05 0.04 0.03 0.03 0.03 0.02 0.02 0.01 0.01 0.01 0.01 0.01 0.00 0.00 0.00 0.00 0.00 0.00 0.00 0.00 0.00 0.00 0.00 0.00 0.00 0.00 0.00 0.00 0.00 0.00 0.00 0.00 0.00 0.00 0.00 0.00 0.00 0.00 0.00 0.00
0.07 0.08 0.08 0.07 0.06 0.05 0.03 0.03 0.02 0.02 0.01 0.01 0.01 0.01 0.00 0.00 0.00 0.00 0.00 0.00 0.00 0.00 0.00 0.00 0.00 0.00 0.00 0.00 0.00 0.00 0.00 0.00 0.00 0.00 0.00 0.00 0.00 0.00 0.00 0.00 0.00 0.00 0.00
0.07 0.08 0.07 0.05 0.04 0.04 0.03 0.02 0.02 0.01 0.01 0.01 0.00 0.00 0.00 0.00 0.00 0.00 0.00 0.00 0.00 0.00 0.00 0.00 0.00 0.00 0.00 0.00 0.00 0.00 0.00 0.00 0.00 0.00 0.00 0.00 0.00 0.00 0.00 0.00 0.00 0.00 0.00
0.09 0.08 0.06 0.04 0.03 0.02 0.02 0.01 0.01 0.01 0.00 0.00 0.00 0.00 0.00 0.00 0.00 0.00 0.00 0.00 0.00 0.00 0.00 0.00 0.00 0.00 0.00 0.00 0.00 0.00 0.00 0.00 0.00 0.00 0.00 0.00 0.00 0.00 0.00 0.00 0.00 0.00 0.00
0.06 0.05 0.04 0.02 0.01 0.01 0.01 0.01 0.01 0.01 0.00 0.00 0.00 0.00 0.00 0.00 0.00 0.00 0.00 0.00 0.00 0.00 0.00 0.00 0.00 0.00 0.00 0.00 0.00 0.00 0.00 0.00 0.00 0.00 0.00 0.00 0.00 0.00 0.00 0.00 0.00 0.00 0.00
0.03 0.03 0.02 0.02 0.02 0.01 0.01 0.01 0.01 0.01 0.00 0.00 0.00 0.00 0.00 0.00 0.00 0.00 0.00 0.00 0.00 0.00 0.00 0.00 0.00 0.00 0.00 0.00 0.00 0.00 0.00 0.00 0.00 0.00 0.00 0.00 0.00 0.00 0.00 0.00 0.00 0.00 0.00
0.04 0.02 0.02 0.02 0.02 0.01 0.01 0.01 0.01 0.00 0.00 0.00 0.00 0.00 0.00 0.00 0.00 0.00 0.00 0.00 0.00 0.00 0.00 0.00 0.00 0.00 0.00 0.00 0.00 0.00 0.00 0.00 0.00 0.00 0.00 0.00 0.00 0.00 0.00 0.00 0.00 0.00 0.00
0.03 0.03 0.02 0.01 0.01 0.01 0.02 0.02 0.01 0.01 0.00 0.00 0.00 0.00 0.00 0.00 0.00 0.00 0.00 0.00 0.00 0.00 0.00 0.00 0.00 0.00 0.00 0.00 0.00 0.00 0.00 0.00 0.00 0.00 0.00 0.00 0.00 0.00 0.00 0.00 0.00 0.00 0.00
0.03 0.02 0.02 0.02 0.01 0.01 0.01 0.01 0.01 0.00 0.00 0.00 0.00 0.00 0.01 0.01 0.01 0.00 0.00 0.00 0.00 0.00 0.00 0.00 0.00 0.00 0.00 0.00 0.00 0.00 0.00 0.00 0.00 0.00 0.00 0.00 0.00 0.01 0.01 0.01 0.01 0.00 0.01
0.02 0.02 0.02 0.01 0.01 0.00 0.00 0.00 0.00 0.00 0.00 0.00 0.00 0.00 0.00 0.01 0.01 0.01 0.01 0.00 0.00 0.00 0.00 0.00 0.00 0.00 0.00 0.00 0.00 0.00 0.00 0.00 0.00 0.00 0.00 0.00 0.01 0.01 0.01 0.01 0.01 0.01 0.00
0.02 0.02 0.02 0.01 0.01 0.00 0.00 0.00 0.00 0.00 0.00 0.00 0.00 0.00 0.00 0.00 0.01 0.01 0.01 0.01 0.00 0.00 0.00 0.00 0.00 0.00 0.00 0.00 0.00 0.00 0.00 0.00 0.00 0.00 0.00 0.00 0.00 0.00 0.00 0.00 0.00 0.00 0.00
MSLP
1010.75 1010.63 1010.52 1010.41 1010.31 1010.25 1010.25 1010.35 1010.61 1011.04 1011.65 1012.41 1013.28 1014.20 1015.09 1015.89 1016.53 1016.99 1017.27 1017.40 1017.42 1017.39 1017.35 1017.36 1017.43 1017.58 1017.79 1018.05 1018.32 1018.59 1018.83 1019.04 1019.21 1019.34 1019.45 1019.52 1019.55 1019.54 1019.48 1019.36 1019.21 1019.02 1018.81
1011.59 1011.51 1011.42 1011.31 1011.18 1011.06 1010.98 1010.99 1011.17 1011.54 1012.10 1012.86 1013.75 1014.70 1015.64 1016.50 1017.19 1017.70 1018.02 1018.17 1018.19 1018.14 1018.08 1018.04 1018.06 1018.14 1018.28 1018.46 1018.67 1018.88 1019.09 1019.28 1019.46 1019.61 1019.75 1019.86 1019.93 1019.96 1019.93 1019.83 1019.68 1019.49 1019.28
1012.36 1012.37 1012.35 1012.29 1012.17 1012.03 1011.90 1011.86 1011.97 1012.27 1012.78 1013.50 1014.37 1015.33 1016.29 1017.18 1017.91 1018.46 1018.82 1018.99 1019.04 1018.99 1018.91 1018.84 1018.80 1018.82 1018.88 1018.98 1019.11 1019.26 1019.42 1019.58 1019.75 1019.93 1020.10 1020.25 1020.37 1020.44 1020.45 1020.39 1020.26 1020.08 1019.87
1013.13 1013.25 1013.33 1013.34 1013.27 1013.15 1013.01 1012.93 1012.98 1013.21 1013.66 1014.32 1015.14 1016.07 1017.01 1017.89 1018.65 1019.22 1019.61 1019.83 1019.91 1019.88 1019.80 1019.71 1019.63 1019.59 1019.58 1019.61 1019.66 1019.74 1019.86 1019.99 1020.16 1020.35 1020.54 1020.74 1020.91 1021.03 1021.08 1021.06 1020.96 1020.80 1020.60
1013.95 1014.19 1014.38 1014.49 1014.49 1014.40 1014.27 1014.17 1014.17 1014.34 1014.71 1015.28 1016.03 1016.88 1017.78 1018.63 1019.37 1019.96 1020.38 1020.63 1020.74 1020.75 1020.69 1020.60 1020.51 1020.43 1020.37 1020.33 1020.33 1020.36 1020.42 1020.53 1020.69 1020.88 1021.10 1021.33 1021.55 1021.71 1021.82 1021.84 1021.78 1021.64 1021.45
1014.87 1015.22 1015.52 1015.73 1015.80 1015.76 1015.65 1015.54 1015.50 1015.60 1015.89 1016.36 1017.00 1017.76 1018.57 1019.36 1020.07 1020.65 1021.08 1021.36 1021.51 1021.56 1021.53 1021.47 1021.38 1021.28 1021.20 1021.12 1021.08 1021.06 1021.09 1021.18 1021.32 1021.52 1021.76 1022.02 1022.27 1022.48 1022.62 1022.68 1022.66 1022.54 1022.36
1015.86 1016.31 1016.71 1017.00 1017.15 1017.16 1017.07 1016.95 1016.89 1016.93 1017.13 1017.51 1018.04 1018.69 1019.39 1020.10 1020.74 1021.29 1021.71 1022.01 1022.19 1022.28 1022.30 1022.27 1022.20 1022.12 1022.03 1021.93 1021.86 1021.82 1021.82 1021.89 1022.02 1022.21 1022.46 1022.74 1023.01 1023.25 1023.43 1023.53 1023.53 1023.44 1023.27
1016.87 1017.40 1017.87 1018.23 1018.43 1018.48 1018.42 1018.32 1018.24 1018.24 1018.38 1018.66 1019.09 1019.62 1020.22 1020.83 1021.40 1021.89 1022.29 1022.59 1022.80 1022.93 1022.99 1022.99 1022.96 1022.90 1022.81 1022.71 1022.62 1022.56 1022.55 1022.59 1022.71 1022.89 1023.13 1023.41 1023.70 1023.96 1024.16 1024.29 1024.31 1024.24 1024.08
1017.80 1018.39 1018.91 1019.30 1019.54 1019.63 1019.61 1019.53 1019.46 1019.45 1019.55 1019.77 1020.12 1020.55 1021.05 1021.55 1022.04 1022.47 1022.83 1023.12 1023.34 1023.49 1023.59 1023.64 1023.64 1023.60 1023.52 1023.43 1023.34 1023.26 1023.22 1023.24 1023.33 1023.49 1023.71 1023.98 1024.26 1024.53 1024.74 1024.89 1024.94 1024.88 1024.73
1018.55 1019.18 1019.72 1020.13 1020.40 1020.52 1020.55 1020.51 1020.48 1020.49 1020.59 1020.79 1021.08 1021.45 1021.85 1022.27 1022.67 1023.04 1023.35 1023.62 1023.84 1024.01 1024.14 1024.21 1024.24 1024.22 1024.17 1024.08 1023.97 1023.88 1023.81 1023.79 1023.85 1023.97 1024.16 1024.40 1024.67 1024.92 1025.14 1025.29 1025.35 1025.31 1025.17
1019.09 1019.72 1020.26 1020.67 1020.95 1021.11 1021.19 1021.22 1021.26 1021.33 1021.47 1021.68 1021.96 1022.28 1022.63 1022.97 1023.30 1023.60 1023.87 1024.11 1024.32 1024.50 1024.64 1024.74 1024.80 1024.80 1024.75 1024.66 1024.54 1024.42 1024.31 1024.26 1024.26 1024.34 1024.48 1024.68 1024.91 1025.14 1025.34 1025.48 1025.55 1025.51 1025.38
1019.43 1020.04 1020.56 1020.96 1021.25 1021.45 1021.58 1021.70 1021.82 1021.98 1022.19 1022.44 1022.74 1023.04 1023.35 1023.64 1023.91 1024.16 1024.39 1024.60 1024.80 1024.98 1025.14 1025.25 1025.32 1025.34 1025.29 1025.19 1025.05 1024.90 1024.76 1024.65 1024.60 1024.62 1024.71 1024.85 1025.03 1025.21 1025.38 1025.50 1025.56 1025.52 1025.40
1019.64 1020.22 1020.70 1021.08 1021.37 1021.60 1021.80 1022.00 1022.22 1022.48 1022.77 1023.08 1023.40 1023.71 1024.00 1024.25 1024.48 1024.68 1024.88 1025.07 1025.26 1025.44 1025.61 1025.74 1025.83 1025.85 1025.80 1025.69 1025.53 1025.35 1025.16 1025.00 1024.89 1024.85 1024.87 1024.94 1025.06 1025.19 1025.31 1025.40 1025.43 1025.38 1025.25
1019.82 1020.36 1020.80 1021.15 1021.43 1021.69 1021.94 1022.22 1022.54 1022.89 1023.25 1023.62 1023.98 1024.29 1024.56 1024.78 1024.97 1025.14 1025.31 1025.48 1025.67 1025.86 1026.04 1026.19 1026.29 1026.32 1026.28 1026.16 1025.98 1025.76 1025.53 1025.32 1025.16 1025.05 1025.00 1025.01 1025.05 1025.12 1025.18 1025.21 1025.20 1025.12 1024.98
1020.07 1020.57 1020.95 1021.27 1021.54 1021.82 1022.11 1022.45 1022.84 1023.25 1023.68 1024.09 1024.45 1024.76 1025.01 1025.20 1025.36 1025.50 1025.65 1025.81 1026.00 1026.20 1026.40 1026.57 1026.69 1026.73 1026.69 1026.57 1026.37 1026.13 1025.87 1025.61 1025.39 1025.23 1025.11 1025.05 1025.03 1025.02 1025.01 1024.98 1024.91 1024.79 1024.62
1020.45 1020.90 1021.24 1021.52 1021.78 1022.05 1022.37 1022.75 1023.17 1023.62 1024.07 1024.48 1024.84 1025.13 1025.34 1025.50 1025.62 1025.74 1025.86 1026.03 1026.22 1026.44 1026.65 1026.84 1026.98 1027.04 1027.00 1026.88 1026.68 1026.42 1026.14 1025.85 1025.59 1025.38 1025.21 1025.08 1024.98 1024.91 1024.82 1024.72 1024.59 1024.42 1024.20
1020.95 1021.35 1021.66 1021.91 1022.15 1022.42 1022.74 1023.12 1023.54 1023.99 1024.43 1024.81 1025.14 1025.38 1025.55 1025.67 1025.75 1025.84 1025.96 1026.12 1026.32 1026.55 1026.79 1027.00 1027.15 1027.22 1027.20 1027.08 1026.88 1026.62 1026.32 1026.01 1025.73 1025.47 1025.26 1025.07 1024.92 1024.77 1024.62 1024.45 1024.25 1024.02 1023.76
1021.52 1021.90 1022.17 1022.39 1022.61 1022.86 1023.17 1023.53 1023.93 1024.35 1024.74 1025.07 1025.34 1025.53 1025.65 1025.72 1025.78 1025.85 1025.96 1026.12 1026.33 1026.57 1026.82 1027.04 1027.20 1027.28 1027.27 1027.15 1026.96 1026.70 1026.39 1026.08 1025.78 1025.50 1025.25 1025.03 1024.82 1024.61 1024.39 1024.16 1023.90 1023.61 1023.30
1022.09 1022.44 1022.69 1022.90 1023.10 1023.33 1023.61 1023.94 1024.29 1024.65 1024.98 1025.26 1025.46 1025.60 1025.67 1025.71 1025.74 1025.80 1025.91 1026.07 1026.28 1026.53 1026.78 1027.01 1027.17 1027.25 1027.24 1027.13 1026.94 1026.68 1026.38 1026.07 1025.76 1025.47 1025.20 1024.94 1024.69 1024.43 1024.16 1023.87 1023.56 1023.22 1022.88
1022.57 1022.91 1023.15 1023.35 1023.54 1023.75 1024.00 1024.28 1024.59 1024.89 1025.16 1025.38 1025.53 1025.62 1025.66 1025.68 1025.71 1025.77 1025.88 1026.04 1026.26 1026.50 1026.75 1026.96 1027.11 1027.19 1027.17 1027.05 1026.86 1026.61 1026.32 1026.01 1025.70 1025.41 1025.12 1024.83 1024.55 1024.26 1023.95 1023.61 1023.26 1022.89 1022.51
1022.92 1023.25 1023.49 1023.69 1023.87 1024.06 1024.29 1024.54 1024.80 1025.05 1025.27 1025.44 1025.56 1025.63 1025.67 1025.69 1025.73 1025.80 1025.92 1026.09 1026.31 1026.54 1026.77 1026.96 1027.09 1027.14 1027.10 1026.98 1026.78 1026.53 1026.25 1025.95 1025.65 1025.35 1025.05 1024.75 1024.45 1024.13 1023.79 1023.42 1023.04 1022.65 1022.25
1023.14 1023.47 1023.71 1023.91 1024.08 1024.27 1024.47 1024.69 1024.92 1025.14 1025.33 1025.48 1025.59 1025.67 1025.72 1025.77 1025.84 1025.94 1026.08 1026.26 1026.46 1026.68 1026.88 1027.03 1027.13 1027.14 1027.08 1026.94 1026.74 1026.49 1026.21 1025.92 1025.62 1025.33 1025.03 1024.73 1024.41 1024.07 1023.71 1023.33 1022.94 1022.53 1022.12
1023.26 1023.58 1023.83 1024.03 1024.20 1024.38 1024.57 1024.77 1024.97 1025.17 1025.36 1025.51 1025.64 1025.75 1025.84 1025.94 1026.05 1026.18 1026.34 1026.53 1026.72 1026.91 1027.07 1027.18 1027.23 1027.20 1027.11 1026.95 1026.74 1026.49 1026.22 1025.94 1025.66 1025.37 1025.08 1024.78 1024.46 1024.12 1023.75 1023.36 1022.96 1022.55 1022.14
1023.32 1023.64 1023.88 1024.08 1024.26 1024.43 1024.61 1024.79 1024.99 1025.18 1025.37 1025.55 1025.71 1025.86 1026.00 1026.15 1026.31 1026.48 1026.66 1026.85 1027.03 1027.19 1027.30 1027.36 1027.36 1027.29 1027.17 1026.99 1026.77 1026.52 1026.27 1026.00 1025.74 1025.47 1025.20 1024.91 1024.60 1024.26 1023.90 1023.52 1023.12 1022.72 1022.31
1023.38 1023.68 1023.92 1024.12 1024.29 1024.45 1024.62 1024.79 1024.98 1025.18 1025.38 1025.58 1025.77 1025.97 1026.17 1026.37 1026.57 1026.77 1026.97 1027.15 1027.31 1027.43 1027.50 1027.51 1027.46 1027.35 1027.20 1027.01 1026.79 1026.55 1026.32 1026.08 1025.84 1025.60 1025.35 1025.09 1024.80 1024.49 1024.15 1023.78 1023.40 1023.01 1022.61
1023.43 1023.72 1023.95 1024.14 1024.30 1024.45 1024.61 1024.77 1024.95 1025.15 1025.35 1025.57 1025.80 1026.04 1026.28 1026.52 1026.75 1026.97 1027.17 1027.34 1027.47 1027.55 1027.58 1027.55 1027.46 1027.33 1027.15 1026.96 1026.75 1026.54 1026.33 1026.13 1025.93 1025.73 1025.52 1025.29 1025.04 1024.76 1024.46 1024.13 1023.77 1023.40 1023.02
Thickness
5729 5733 5734 5733 5731 5733 5735 5733 5730 5730 5731 5729 5725 5722 5718 5715 5712 5711 5710 5710 5710 5709 5707 5705 5704 5703 5701 5698 5697 5695 5693 5690 5689 5686 5682 5681 5680 5679 5676 5674 5672 5670 5669
5718 5720 5721 5722 5718 5721 5723 5724 5726 5726 5726 5725 5723 5718 5713 5708 5704 5701 5700 5699 5699 5698 5697 5697 5695 5694 5691 5688 5688 5687 5684 5681 5680 5677 5673 5669 5667 5667 5666 5664 5661 5659 5658
5705 5707 5709 5708 5708 5710 5712 5714 5714 5716 5717 5717 5716 5711 5705 5700 5695 5692 5690 5688 5687 5688 5687 5686 5684 5683 5682 5678 5677 5677 5675 5672 5670 5668 5665 5660 5655 5653 5653 5652 5649 5647 5646
5697 5696 5698 5698 5697 5699 5701 5701 5702 5706 5707 5709 5708 5704 5697 5690 5684 5681 5679 5677 5677 5677 5676 5675 5674 5673 5670 5668 5666 5665 5665 5663 5659 5658 5655 5652 5649 5644 5641 5639 5637 5635 5632
5686 5685 5687 5688 5689 5690 5691 5693 5694 5697 5698 5700 5699 5694 5687 5681 5676 5672 5668 5667 5666 5665 5664 5663 5662 5660 5658 5656 5655 5654 5652 5650 5647 5645 5643 5640 5636 5633 5630 5624 5621 5620 5619
5675 5675 5676 5679 5681 5681 5681 5683 5685 5685 5686 5687 5686 5683 5677 5673 5668 5663 5658 5655 5654 5652 5652 5651 5649 5647 5646 5644 5641 5640 5638 5636 5634 5632 5629 5625 5621 5617 5615 5610 5606 5604 5603
5664 5664 5665 5667 5669 5670 5670 5672 5672 5672 5672 5673 5671 5669 5666 5663 5658 5653 5648 5645 5642 5640 5638 5638 5636 5635 5633 5631 5629 5627 5624 5622 5620 5617 5614 5610 5606 5604 5600 5596 5591 5588 5586
5651 5652 5652 5653 5655 5657 5657 5658 5658 5657 5657 5657 5656 5654 5652 5649 5644 5640 5637 5633 5630 5628 5626 5625 5623 5622 5620 5617 5615 5613 5610 5608 5605 5602 5599 5596 5592 5590 5586 5582 5577 5572 5568
5640 5640 5640 5641 5642 5643 5642 5643 5643 5643 5643 5642 5641 5639 5636 5634 5630 5626 5624 5621 5618 5616 5614 5612 5610 5608 5606 5604 5601 5598 5595 5593 5590 5587 5584 5581 5577 5575 5572 5568 5564 5558 5551
5629 5628 5628 5628 5629 5629 5629 5630 5630 5630 5629 5628 5627 5624 5622 5619 5617 5614 5611 5609 5606 5603 5601 5599 5596 5594 5591 5589 5586 5583 5581 5579 5576 5573 5570 5566 5563 5560 5557 5553 5549 5544 5538
5618 5617 5616 5616 5617 5617 5617 5617 5618 5617 5615 5614 5612 5610 5608 5605 5603 5601 5597 5595 5593 5590 5587 5584 5581 5578 5576 5574 5571 5568 5566 5564 5561 5558 5555 5552 5548 5545 5541 5538 5534 5529 5524
5610 5608 5606 5605 5605 5605 5605 5605 5604 5603 5602 5600 5598 5596 5594 5591 5589 5586 5583 5581 5579 5576 5572 5569 5567 5564 5561 5559 5557 5554 5551 5549 5547 5544 5541 5538 5535 5531 5527 5523 5519 5515 5511
5601 5599 5597 5596 5595 5594 5593 5593 5591 5589 5588 5586 5584 5582 5579 5577 5574 5572 5570 5567 5564 5561 5558 5555 5551 5549 5547 5545 5543 5540 5538 5536 5534 5531 5528 5525 5522 5518 5514 5510 5506 5502 5500
5592 5590 5587 5586 5584 5583 5582 5581 5578 5576 5575 5573 5571 5568 5566 5563 5560 5558 5556 5553 5550 5547 5544 5541 5538 5535 5533 5531 5529 5527 5525 5523 5521 5519 5517 5515 5512 5508 5504 5500 5496 5493 5489
5583 5580 5577 5575 5573 5571 5570 5568 5566 5564 5562 5560 5558 5555 5552 5550 5548 5545 5543 5540 5537 5534 5531 5528 5525 5522 5521 5519 5517 5515 5514 5511 5510 5508 5506 5505 5502 5499 5496 5493 5488 5485 5480
5576 5571 5568 5565 5562 5560 5559 5556 5554 5552 5550 5548 5545 5543 5540 5538 5535 5532 5530 5527 5525 5522 5519 5515 5513 5511 5509 5508 5507 5505 5502 5501 5499 5497 5496 5495 5493 5490 5488 5486 5483 5480 5476
5568 5563 5559 5556 5552 5550 5547 5545 5543 5541 5539 5536 5534 5531 5529 5526 5524 5522 5519 5516 5513 5510 5507 5504 5502 5500 5498 5497 5496 5495 5493 5491 5489 5488 5486 5486 5485 5482 5480 5479 5478 5476 5474
5559 5554 5549 5546 5542 5540 5537 5535 5533 5531 5529 5526 5524 5522 5520 5517 5514 5511 5508 5505 5503 5500 5498 5495 5493 5490 5489 5488 5487 5485 5484 5482 5482 5481 5480 5478 5478 5477 5475 5473 5472 5472 5472
5549 5544 5540 5537 5533 5531 5529 5526 5524 5522 5519 5517 5515 5513 5511 5508 5505 5502 5500 5497 5495 5492 5489 5487 5484 5482 5481 5480 5478 5476 5475 5474 5474 5474 5474 5474 5473 5473 5471 5468 5467 5468 5469
5539 5535 5531 5528 5525 5522 5521 5518 5515 5512 5510 5508 5507 5504 5502 5500 5497 5494 5492 5489 5487 5485 5482 5479 5477 5475 5473 5472 5471 5469 5467 5466 5467 5468 5469 5470 5470 5469 5468 5465 5463 5462 5464
5532 5527 5523 5519 5517 5515 5512 5509 5506 5504 5503 5501 5499 5496 5494 5492 5489 5486 5485 5482 5480 5478 5475 5473 5470 5468 5467 5466 5464 5463 5461 5460 5461 5462 5464 5466 5467 5468 5468 5466 5463 5462 5462
5525 5520 5516 5512 5510 5508 5505 5502 5499 5498 5496 5494 5491 5489 5487 5486 5483 5480 5477 5475 5473 5470 5467 5465 5463 5461 5460 5459 5458 5458 5458 5458 5457 5458 5460 5463 5466 5467 5468 5467 5465 5464 5463
5519 5514 5510 5507 5504 5503 5500 5496 5493 5492 5490 5487 5484 5482 5481 5478 5476 5473 5470 5468 5465 5462 5460 5458 5455 5454 5453 5453 5453 5454 5454 5455 5455 5457 5459 5462 5464 5466 5466 5465 5464 5463 5460
5514 5509 5506 5502 5499 5497 5495 5492 5489 5487 5484 5480 5478 5476 5474 5471 5469 5467 5465 5462 5459 5456 5455 5452 5450 5448 5448 5448 5449 5450 5451 5453 5454 5456 5458 5461 5462 5462 5462 5461 5461 5459 5457
5510 5506 5502 5498 5495 5492 5490 5488 5485 5482 5479 5476 5473 5471 5469 5466 5463 5461 5459 5457 5455 5454 5451 5449 5447 5445 5444 5445 5446 5446 5447 5449 5450 5451 5454 5455 5454 5454 5454 5454 5455 5454 5453
5508 5503 5499 5495 5492 5489 5486 5484 5482 5479 5475 5472 5470 5467 5465 5462 5459 5456 5454 5454 5453 5452 5450 5448 5446 5445 5444 5445 5445 5446 5447 5449 5450 5449 5448 5447 5447 5447 5447 5447 5447 5447 5446